CAPE
19 6 33 88 115 96 64 97 144 190 289 569 709 808 875 876 902 955 1107 1149 1139 1176 1151 1156 1176 1232 1237 1237 1274 1345 1423 1444 1453 1520 1770 2000 2228 2021 2034 1955 1928 1943 1933 1663 1802 2384 1917 2001 2017 2131 2278 2242 1988 1720 1617 1665 1799 1665 2259 2832 2574 1360 1255 1275 914 506 593 683 635 773 790 791 1465 1692 1146 1270 1457 1712 1721 1970 2193 2120 1913 1634 1747
211 5 20 66 98 108 84 95 146 129 204 434 643 757 853 849 849 884 1032 1142 1146 1138 1168 1058 1056 1117 1133 1169 1173 1232 1322 1318 1345 1579 1858 2157 2175 2038 2008 1920 1880 1870 2198 1755 1850 2041 1945 1972 1915 2022 2119 2139 1972 1680 1577 2085 2538 2167 2550 2090 2025 1215 1049 837 322 534 239 547 682 675 600 353 1318 2049 1343 1239 1168 1276 1558 1813 1910 2001 1961 1852 1691
5 3 19 69 93 113 112 122 110 111 151 349 561 696 794 818 821 816 930 1074 1130 1130 1134 1066 983 1036 1092 1155 1178 1227 1195 1203 1236 1586 2076 2162 2148 2078 1953 1876 1822 1776 2149 2006 1827 1934 1961 1926 1894 1981 2072 2077 1933 1617 1891 1984 1926 2155 2341 1963 1728 1738 2070 492 103 142 313 219 370 505 207 336 773 438 468 839 1099 1153 1204 1405 1613 1754 1884 1955 1892
294 1 32 59 82 110 129 139 113 90 127 256 463 619 718 779 809 803 857 980 1066 1112 1112 1102 954 977 1058 1094 1108 1100 969 963 1208 1543 1970 2116 2154 2158 2048 1885 1750 1702 2028 1990 1842 1843 1870 1755 1686 1805 1913 1880 1638 1580 1798 1899 2084 2056 2204 2348 1453 934 808 527 1094 302 185 420 384 175 86 89 435 548 135 303 187 635 969 1071 1215 1432 1606 1751 1877
317 8 1 42 142 219 212 172 132 92 87 194 382 508 603 704 752 786 815 900 974 1052 1081 1098 998 861 919 915 797 611 598 810 1031 1366 1803 2199 2172 2124 2131 1956 1810 1717 1984 1907 1864 1712 1630 1400 1265 1390 1595 1685 1631 1438 1719 1872 1919 2167 2286 2390 1797 930 750 286 486 808 136 644 362 95 125 320 259 224 54 357 131 460 512 586 901 1204 1255 1494 1774
329 309 2 16 52 235 118 177 228 109 78 147 281 338 497 578 654 717 749 818 892 942 967 990 966 764 695 594 296 241 564 663 968 1240 1599 2045 2351 2152 2095 1981 1814 1791 1942 1848 1832 1578 1441 1289 1172 1381 1484 1691 1827 1456 1482 1615 1621 1808 2052 2332 2266 1022 667 232 226 1235 308 962 69 34 29 348 333 150 160 565 153 505 463 368 370 684 1001 1238 1526
376 334 44 0 20 136 128 252 314 206 85 106 216 314 423 472 564 636 677 737 809 838 871 872 878 570 269 67 89 460 494 514 791 1083 1484 1860 2245 2244 2179 2126 1896 1947 2018 1828 1822 1644 1500 1412 1223 1321 1512 1634 2129 1768 1722 1786 1828 1839 1972 2052 2286 1929 864 660 271 156 285 619 1068 812 1586 1057 151 382 435 13 406 237 66 118 271 138 386 835 1063
423 394 374 358 138 329 349 366 367 317 108 83 165 194 234 409 497 578 629 678 753 800 817 801 574 130 68 22 15 375 398 412 620 926 1325 1865 2064 2228 2244 2342 2108 2120 2143 1899 1893 1837 1688 1642 1268 1254 1474 1636 2207 2170 2000 1903 2048 2212 2337 1931 2041 2164 1556 869 575 149 411 274 1860 848 744 1213 358 186 29 271 224 181 303 47 11 0 184 491 780
481 426 428 409 387 386 313 222 420 251 105 64 132 163 189 294 441 544 611 670 754 786 760 729 325 150 72 14 16 306 100 207 787 1174 1492 2089 1970 2146 2226 2335 2303 2198 2254 2078 1932 1893 1858 1723 1604 1408 1503 1678 2601 2313 2171 2112 2318 2360 2537 2237 2189 2249 1836 1638 1382 728 48 286 38 3 68 305 286 244 226 59 236 50 114 13 204 84 48 184 313
587 488 457 413 450 433 438 452 282 134 109 82 93 124 157 254 418 437 593 663 361 314 616 694 250 338 31 4 4 1 40 215 796 1211 1491 1794 1863 2016 2181 2262 2378 2335 2364 2288 2097 1950 1885 1784 1818 1748 1679 1766 2609 2610 2395 2299 2291 2392 2552 2522 2434 2271 2164 2054 1830 1358 900 211 2 75 63 132 89 42 85 231 51 0 47 66 65 138 305 310 96
670 608 488 483 494 472 482 476 508 547 440 49 60 88 136 228 362 404 438 535 384 299 372 252 223 242 47 3 0 0 0 5 503 1026 1387 1664 1759 1866 2050 2188 2310 2400 2379 2510 2451 2273 2067 1986 1886 1791 1859 2379 2888 2812 2714 2502 2354 2274 2364 2506 2431 2288 2209 2340 3154 2154 1643 998 232 253 558 152 170 59 44 21 20 22 28 157 36 118 78 58 207
656 657 568 512 544 552 534 528 547 567 536 248 35 43 125 209 309 367 328 325 334 294 352 273 243 228 75 5 0 0 0 0 229 702 1236 1526 1696 1754 1900 2050 2220 2314 2367 2475 2561 2548 2436 2262 2258 2152 2266 2367 2663 2851 2850 2675 2526 2317 2176 2177 2156 2104 2078 2136 2213 2498 2180 1708 1187 937 646 476 7 74 64 301 786 669 276 70 11 177 214 49 403
580 638 618 552 592 604 602 607 600 608 587 484 28 25 84 188 275 322 292 268 308 296 329 313 247 252 128 12 0 0 0 0 8 285 883 1333 1565 1692 1759 1906 2052 2204 2297 2369 2450 2580 2627 2546 2379 2231 2283 2419 2551 2659 2811 2784 2663 2397 2222 2130 2002 2055 2040 2013 1965 2026 1837 1647 1442 1036 950 857 579 294 134 1056 1422 1257 984 5 1 73 580 473 580
544 561 573 613 632 654 659 659 655 650 620 564 223 30 64 164 246 286 287 222 279 293 324 316 254 284 180 40 1 0 0 0 0 23 408 1016 1332 1527 1593 1677 1810 1982 2092 2275 2369 2472 2518 2578 2545 2412 2298 2294 2490 2494 2601 2659 2645 2462 2285 2266 2162 2169 2090 2037 2057 1940 1817 1797 1623 1350 1623 1570 1451 1217 1331 1312 1403 1480 1264 860 180 384 204 399 365
574 590 639 662 663 696 711 710 708 693 661 598 539 19 35 136 217 311 261 196 222 290 313 326 282 255 210 72 12 0 0 0 0 0 122 575 946 1223 1322 1402 1580 1707 1862 2034 2237 2383 2497 2557 2547 2444 2353 2294 2370 2456 2552 2488 2510 2515 2461 2415 2387 2206 2195 2199 2219 2138 2092 1978 1742 1718 1738 1725 1751 1749 1522 1444 1611 1712 1423 868 343 207 298 368 499
642 602 618 665 708 728 743 743 730 723 689 630 578 377 28 101 179 249 251 186 186 335 299 326 310 226 207 114 31 12 23 0 0 1 6 268 519 854 1018 1130 1314 1471 1650 1812 1999 2189 2316 2384 2468 2492 2383 2352 2325 2327 2366 2352 2377 2456 2510 2514 2493 2479 2296 2254 2327 2275 2290 2253 2072 1932 1919 1916 1856 1796 1730 1816 1823 1634 1479 200 147 224 486 901 802
759 728 688 712 730 741 773 767 757 699 680 658 608 540 252 78 149 225 230 175 171 314 299 321 311 203 177 142 61 26 8 0 0 0 0 20 244 465 748 888 1045 1224 1388 1591 1734 1938 2130 2250 2347 2401 2412 2410 2378 2313 2278 2337 2411 2472 2485 2462 2393 2411 2623 2390 2420 2455 2405 2378 2377 2249 2185 2103 2170 2105 2131 2079 1845 1664 1599 513 223 594 846 1012 1190
822 816 810 796 785 775 778 779 779 733 717 660 626 560 478 44 341 355 373 186 153 211 288 310 311 238 161 134 98 48 25 7 0 0 0 0 3 89 304 551 806 986 1151 1368 1517 1745 1975 2688 2294 2356 2415 2418 2399 2362 2318 2356 2381 2386 2359 2296 2285 2232 2489 2572 2492 2546 2529 2498 2522 2514 2418 2259 2220 2246 2335 2274 2054 1844 1696 1291 1043 1032 1074 1411 1494
863 869 858 839 796 776 768 750 723 728 729 726 653 601 567 486 416 416 404 419 148 164 259 322 312 293 195 156 115 69 40 27 3 0 0 0 0 0 18 275 467 706 1024 1158 1303 1498 1784 2143 2282 2316 2381 2416 2398 2380 2354 2325 2340 2365 2303 2196 2171 2143 2213 2379 2436 2473 2502 2456 2456 2488 2436 2300 2210 2241 2302 2302 2238 2159 1966 1686 1118 1073 1509 1718 1616
915 886 862 822 796 764 747 740 722 739 752 753 725 647 618 585 508 454 434 426 282 369 339 343 321 326 277 183 123 102 85 37 18 1 0 0 0 0 0 2 150 549 682 894 1056 1224 1597 1824 2108 2211 2291 2349 2390 2385 2361 2338 2360 2372 2287 2158 2108 2058 2072 2227 2308 2318 2408 2428 2400 2423 2445 2398 2300 2265 2270 2295 2322 2272 2195 1714 1171 1230 1822 1811 1687
981 936 890 819 780 748 739 703 715 725 740 755 748 692 654 653 587 505 206 447 455 462 419 392 378 343 386 247 147 78 55 40 19 6 0 0 0 0 0 0 11 209 479 629 840 987 1308 1649 1936 2189 2207 2224 2288 2332 2324 2334 2356 2384 2306 2197 2135 2044 2068 2138 2196 2247 2146 2328 2345 2310 2365 2367 2290 2274 2288 2235 2244 2281 2236 2115 1808 1885 2027 1954 1880
988 1025 966 916 859 818 771 722 749 717 734 752 744 678 645 659 667 600 448 126 462 469 447 418 408 384 331 312 201 81 48 27 14 9 26 0 0 0 0 0 0 18 286 522 671 775 1055 1400 1757 1987 2124 2173 2140 2178 2216 2284 2346 2370 2303 2250 2194 2102 1994 2051 2033 2184 2232 2132 2254 2254 2212 2232 2146 2109 2187 2267 2230 2230 2266 2227 2090 1979 2034 2091 2010
921 1010 1066 1030 990 909 884 845 836 788 714 695 698 688 665 648 678 682 586 491 457 464 473 456 419 316 380 336 264 154 41 6 3 2 10 10 0 0 0 0 0 1 161 359 513 675 826 1091 1451 1771 1947 2063 2064 2060 2119 2196 2276 2302 2258 2208 2169 2142 2054 2033 1961 2118 2135 2119 2126 2201 2248 2167 2070 2097 2168 2212 2167 2245 2211 2301 2312 2228 2183 2172 2149
921 985 1022 1055 1055 1033 957 896 910 862 811 779 684 669 658 630 675 693 656 579 519 504 488 475 470 313 284 368 395 227 82 7 0 1 2 4 4 0 0 0 0 0 47 300 412 580 760 868 1075 1406 1678 1881 1950 1951 2003 2069 2143 2174 2169 2157 2138 2133 2101 2049 2076 2051 1999 2055 2161 2200 2205 2124 2042 2104 2121 2169 2166 2188 2217 2314 2290 2297 2278 2224 2224
943 974 1007 1030 1028 1026 997 922 929 906 856 847 823 753 641 671 674 661 638 614 562 527 528 506 475 451 258 254 374 427 417 94 11 5 7 2 0 0 0 0 0 0 1 103 375 474 655 798 919 1039 1261 1526 1743 1802 1835 1890 2011 2088 2133 2132 2124 2118 2114 2130 2116 2062 2174 2030 2058 2139 2219 2104 2031 2075 2140 2063 2119 2196 2278 2204 2304 2289 2290 2296 2292
921 976 997 1010 1019 1015 1002 974 941 924 918 886 833 818 823 790 686 646 639 630 580 559 542 540 519 463 378 285 355 434 458 461 372 28 9 3 0 0 0 0 0 0 0 0 112 286 479 634 820 936 1014 1190 1403 1579 1671 1780 1868 1961 2029 2080 2120 2131 2110 2145 2154 2117 2137 2162 2076 2089 2071 2119 2044 2109 2238 2220 2182 2205 2189 2205 2283 2320 2260 2244 2319
874 946 978 1014 1031 1005 1006 985 950 937 953 920 877 848 790 804 806 780 726 634 608 579 569 554 550 520 472 442 433 436 454 477 458 432 340 82 0 0 0 0 7 0 0 0 0 53 309 350 507 750 942 1044 1171 1344 1476 1581 1715 1830 1946 2064 2060 2100 2150 2107 2121 2142 2100 2110 2130 2142 2130 2086 2097 2146 2196 2283 2324 2244 2208 2334 2391 2462 2314 2279 2341
783 884 939 977 968 991 986 977 959 931 921 931 920 900 868 775 737 759 755 692 644 598 602 646 616 595 542 507 492 477 470 476 499 517 507 498 444 2 0 0 0 2 1 0 0 0 3 170 172 266 514 815 1040 1206 1326 1415 1545 1670 1827 1939 2032 2096 2118 2125 2136 2149 2124 2128 2130 2148 2155 2142 2116 2149 2181 2273 2307 2416 2310 2343 2379 2298 2337 2314 2421
780 884 950 941 984 980 952 938 919 905 875 880 890 898 881 849 836 713 724 706 686 652 702 734 727 682 631 612 588 562 546 514 536 553 584 629 633 616 547 0 0 0 0 3 3 0 0 3 63 96 111 249 560 916 1162 1301 1411 1536 1669 1832 1963 2050 2111 2155 2149 2093 2070 2112 2124 2147 2134 2142 2210 2362 2171 2136 2138 2160 2312 2422 2426 2242 2372 2356 2540
731 841 910 966 968 978 998 969 935 900 862 833 871 841 806 804 779 781 691 728 722 744 760 767 764 749 720 698 680 659 652 657 634 631 630 671 700 723 721 698 0 0 0 0 0 3 3 3 9 60 112 137 194 387 685 788 984 1322 1508 1643 1819 1946 2080 2120 2194 2157 2047 1958 2004 2032 2147 2457 2591 2544 2204 2149 2165 2180 2188 2258 2439 2304 2376 2413 2406
528 598 798 893 922 938 974 1056 1045 1010 992 941 903 854 831 792 765 758 858 1026 736 746 743 732 746 750 737 718 715 697 716 743 754 736 721 733 744 776 783 774 790 792 734 581 0 0 10 31 35 44 94 171 233 255 99 1 589 847 1208 1479 1654 1785 1955 2086 2102 2123 2115 2070 1963 1947 2030 2315 2829 2970 2784 2327 2196 2201 2223 2233 2252 2252 2404 2420 2426
444 532 585 730 834 896 962 1027 1095 1123 1093 1024 1001 920 891 857 824 811 803 814 1168 848 787 793 783 753 769 772 741 733 715 764 791 805 838 862 874 852 883 895 887 874 864 869 845 766 632 198 57 82 100 152 245 181 0 0 0 317 791 1248 1515 1610 1765 1906 2017 2036 2058 2060 2023 1938 1877 1847 2167 2542 2810 2871 2530 2381 2319 2274 2265 2261 2253 2256 2251
185 406 454 514 697 807 892 958 987 998 1066 1122 1107 1064 1007 926 922 1002 859 1045 1183 1248 1095 887 864 814 778 782 793 755 767 816 822 808 816 885 932 974 1030 1044 1049 1016 992 966 958 972 956 894 762 618 358 167 242 64 0 0 0 0 288 853 1356 1475 1596 1728 1836 1923 1965 1978 1994 1977 1913 1915 1751 2234 2528 2564 2618 2597 2309 2400 2406 2356 2297 2254 2256
32 118 286 390 469 590 646 674 715 754 822 1020 1078 1082 1048 840 856 871 1128 1079 1270 1225 1157 1020 902 939 937 829 856 820 926 874 895 911 864 831 859 968 1063 1134 1142 1143 1102 1074 1053 1060 1097 1091 1050 969 846 716 455 107 0 0 0 0 0 619 1028 1376 1476 1548 1601 1752 1814 1889 1900 1923 1973 1920 1864 1976 2335 2507 2522 2477 2511 2298 2165 2274 2344 2373 2366
11 41 95 193 294 374 447 448 524 416 527 562 819 883 928 719 397 722 1221 1263 1121 1301 1261 1140 1038 1067 1013 936 856 905 905 924 956 992 990 927 916 924 932 989 1148 1197 1203 1174 1150 1146 1154 1194 1218 1206 1159 1066 954 845 646 0 0 0 0 542 655 1156 1283 1397 1456 1524 1628 1767 1742 1836 1861 1888 1876 1823 1866 2041 2250 2358 2419 2356 2290 2092 2066 2130 2190
41 17 7 86 157 242 270 310 337 320 313 367 466 452 532 699 589 709 1043 1126 1248 1201 1147 1265 1312 1235 1199 1095 992 958 1150 1072 1090 1130 1130 1054 982 1009 962 910 1018 1124 1188 1216 1237 1218 1238 1231 1286 1427 1517 1458 1301 1104 920 519 0 0 0 0 582 816 1113 1312 1360 1391 1454 1560 1702 1713 1732 1792 1722 1690 1584 1460 1717 2024 2132 2221 2230 2197 2172 2036 1962
21 16 20 21 43 111 152 131 154 223 251 244 277 306 382 521 612 594 671 932 1280 1242 1232 1213 1237 1249 1188 1146 1120 1089 1071 1189 1246 1270 1219 1164 1116 1119 1112 980 1023 1032 1213 1318 1364 1390 1364 1288 1217 1237 1615 1716 1615 1391 1075 817 0 0 0 0 345 638 877 1147 1246 1337 1387 1454 1555 1605 1637 1710 1732 1683 1473 1421 1432 1471 2033 1995 2061 2062 2033 1948 2005
0 0 0 0 0 0 18 95 106 107 150 206 165 213 178 0 296 507 385 649 1123 1252 1299 1383 1314 1136 1149 1177 1220 1172 1177 1334 1358 1366 1323 1262 1235 1241 1292 1310 1196 1186 1320 1447 1504 1527 1514 1416 1271 1187 1208 1765 1930 1771 1438 1057 692 58 0 14 138 487 696 912 1151 1283 1354 1388 1432 1852 1848 1612 1616 1627 1413 1407 1419 1431 1775 1991 1962 1901 1882 1886 1920
0 0 0 0 0 0 0 0 44 88 33 64 119 65 94 8 0 221 362 452 888 1058 1320 1334 1236 1172 1206 1174 1190 1168 1097 1285 1438 1490 1439 1395 1375 1401 1443 1444 1447 1465 1535 1648 1680 1688 1646 1604 1540 1365 1267 1393 1871 2142 2033 1588 1105 735 231 50 212 371 570 786 1020 1154 1276 1348 1339 1596 1892 1812 1572 1508 1378 1394 1401 1397 1458 1696 1895 1864 1867 1913 1942
0 0 0 0 0 0 0 0 0 0 0 0 0 41 41 0 10 144 288 636 921 967 1041 1142 1235 1341 1420 1447 1421 1332 1249 1236 1246 1427 1529 1589 1593 1579 1609 1668 1690 1685 1712 1782 1837 1818 1771 1719 1681 1589 1430 1384 1615 2145 2321 2162 1651 1134 762 435 294 469 600 754 879 1026 1191 1276 1320 1337 1350 1347 1542 1455 1403 1400 1402 1398 1404 1510 1627 1705 1792 1882 1898
0 0 0 0 0 0 0 0 0 0 0 0 0 0 10 23 16 24 219 375 418 591 843 882 941 1115 1374 1572 1659 1702 1658 1502 1305 1151 1312 1456 1634 1745 1807 1832 1814 1807 1838 1891 1935 1929 1838 1780 1723 1644 1556 1493 1638 1991 2421 2442 2205 1670 1151 789 578 563 606 741 862 946 1150 1248 1274 1315 1371 1229 1251 1349 1430 1431 1409 1401 1404 1445 1594 1668 1701 1662 1686
0 0 0 0 0 0 0 0 0 0 0 0 0 0 0 0 0 33 109 208 314 337 558 624 757 846 802 1256 1473 1878 2115 2141 1994 1755 1504 1284 1288 1350 1584 1732 1822 1850 1889 1927 1931 1896 1841 1776 1730 1671 1619 1611 1799 2099 2351 2532 2463 2150 1603 1122 800 690 695 729 889 972 1074 1148 1192 1258 1269 1218 1192 1231 1268 1296 1360 1369 1387 1403 1434 1441 1469 1502 1519
0 0 0 0 0 0 0 0 0 0 0 0 0 0 0 0 0 0 0 0 171 208 362 433 520 548 670 894 1167 1528 1773 1857 1594 1954 2041 1934 1793 1609 1484 1768 1880 1849 1791 1820 1821 1816 1786 1766 1734 1694 1663 1655 1742 2145 2304 2466 2545 2403 2020 1566 1136 842 751 755 934 966 1037 1101 1110 1183 1218 1108 1152 1179 1196 1213 1236 1269 1300 1346 1388 1416 1452 1488 1526
0 0 0 0 0 0 0 0 0 0 0 0 0 0 0 0 0 0 0 0 126 238 272 335 363 427 614 718 984 1161 1136 1932 2278 2365 2385 2349 2057 1886 1773 1630 1811 1911 1936 1886 1750 1756 1743 1754 1772 1736 1714 1720 1854 2109 2361 2471 2567 2558 2338 1943 1521 1171 884 812 893 993 1120 1154 1127 1180 1171 1110 1166 1190 1201 1208 1224 1252 1289 1331 1352 1390 1436 1498 1588
0 0 0 0 0 0 0 0 0 0 0 0 0 0 0 0 0 0 0 0 0 144 244 275 261 295 390 500 567 1188 1281 1447 1746 1969 2468 2579 2586 2271 2021 1885 1738 1916 1962 1969 1930 1777 1767 1783 1771 1769 1762 1757 1985 2296 2443 2472 2548 2620 2543 2303 1925 1524 1181 959 890 932 913 1125 1047 1036 1084 1142 1189 1212 1220 1223 1238 1265 1313 1364 1405 1466 1541 1655 1788
0 0 0 0 0 0 0 0 0 0 0 0 0 0 0 0 0 0 0 0 0 89 137 187 185 82 212 325 428 811 2245 1930 1909 1912 2207 2474 2626 2618 2373 2115 1928 1982 2057 2027 2015 1814 1803 1785 1796 1807 1816 1818 1990 2238 2292 2358 2455 2536 2555 2501 2288 1949 1602 1265 1013 995 1000 1023 1057 1106 1168 1212 1237 1241 1239 1248 1275 1314 1356 1415 1475 1554 1656 1774 1874
0 0 0 0 0 0 0 0 0 0 0 0 0 0 0 0 0 0 0 0 1 1 129 177 192 179 30 2 18 181 802 1308 1884 2113 2258 2233 2445 2702 2669 2334 2090 1964 2132 2135 2065 1891 1866 1828 1842 1855 1873 1891 1918 2023 2164 2303 2416 2462 2463 2488 2478 2299 2033 1785 1485 1170 1131 1161 1199 1242 1281 1306 1307 1302 1284 1297 1329 1371 1424 1493 1588 1668 1765 1878 1988
0 0 0 0 0 0 0 0 0 0 0 0 0 0 0 0 0 0 0 0 1 2 81 184 186 88 2 2 4 85 540 955 1165 1461 1959 2421 2421 2738 2892 2763 2349 1953 1807 2131 2181 2044 1993 1956 1902 1904 1912 1941 1989 2061 2152 2292 2386 2428 2405 2375 2409 2427 2292 2115 1933 1649 1359 1288 1332 1359 1369 1371 1370 1356 1349 1346 1395 1476 1563 1651 1750 1848 1952 2042 2131
0 0 0 0 0 0 0 0 0 0 0 0 0 0 0 0 0 0 0 0 1 2 5 2 91 2 2 3 6 67 354 764 1129 1320 1460 1726 2123 2573 2588 2623 2533 2384 2070 2048 2226 2140 2078 2050 1983 1946 1948 1980 2018 2070 2128 2170 2291 2339 2312 2274 2312 2362 2328 2228 2114 2000 1786 1470 1374 1404 1430 1432 1424 1424 1402 1404 1438 1516 1615 1717 1815 1893 1993 2080 2172
0 0 0 0 0 0 0 0 0 0 0 0 0 0 0 0 0 0 0 0 1 2 1 1 1 1 1 3 4 30 234 622 736 837 910 1080 1498 2454 2874 2704 2699 2658 2377 2227 2157 2285 2180 2102 2066 2047 2022 2033 2028 2013 1972 2013 2135 2184 2221 2221 2141 2162 2214 2185 2116 2051 1902 1714 1494 1425 1445 1440 1436 1428 1431 1443 1477 1543 1612 1709 1791 1890 1980 2072 2156
0 0 0 0 0 0 0 0 0 0 0 0 0 0 0 0 0 0 0 0 0 2 2 1 2 2 1 2 2 2 37 302 527 707 955 1009 1341 1797 2812 3234 3273 3164 3100 2953 2717 2476 2256 2091 2122 2117 2095 2063 2044 1988 1941 1949 1972 2024 2102 2068 2204 2286 2328 2321 2263 2153 2050 1875 1610 1445 1485 1485 1471 1467 1464 1470 1488 1518 1583 1643 1722 1792 1897 1983 2069
Wind_Speed
nan nan nan nan 8 nan nan nan 4 2 3 3 3 3 5 8 10 10 11 11 11 11 10 8 7 8 9 8 9 9 11 11 12 13 12 12 11 11 11 10 9 9 8 8 10 11 11 11 11 12 11 11 11 12 12 12 12 10 11 12 12 11 11 11 11 10 11 14 16 16 17 15 15 12 12 12 14 14 13 12 11 10 10 10 11
4 nan nan nan nan 8 nan nan 4 4 3 4 3 2 4 7 9 10 12 12 12 10 9 7 7 8 8 8 8 8 10 10 13 13 12 11 10 10 11 10 9 9 9 9 10 11 11 12 12 12 12 13 13 13 12 12 11 11 11 12 13 11 12 12 12 10 12 11 13 18 18 17 13 12 12 13 13 14 13 12 11 11 11 11 10
nan nan nan nan nan 8 6 5 4 5 4 4 3 2 4 7 9 11 12 13 13 11 8 7 7 8 8 8 7 9 11 12 12 12 11 9 10 11 11 9 9 9 9 10 10 12 13 12 13 13 13 13 13 14 13 11 10 10 11 12 13 13 11 12 10 9 9 11 10 12 15 16 16 14 12 12 12 12 12 13 11 12 13 11 10
3 nan nan nan nan 7 5 4 5 nan 3 3 3 2 5 7 10 11 12 14 14 11 8 7 7 8 8 7 7 7 9 11 11 12 11 9 10 12 11 10 9 10 10 11 12 12 13 14 13 13 13 13 13 13 12 11 9 9 10 11 11 11 11 10 10 8 8 7 12 12 nan nan 14 13 14 14 9 10 12 13 11 12 13 12 10
1 nan nan nan 4 5 6 5 5 nan nan 2 2 2 5 6 9 10 12 13 13 10 8 7 7 8 9 10 9 11 13 11 11 12 11 11 12 13 13 10 10 11 12 12 13 12 13 13 13 14 14 14 13 13 12 11 9 9 9 9 10 9 8 8 9 9 7 10 5 nan 12 11 10 12 nan 12 8 8 10 13 13 14 14 12 12
1 1 nan nan nan 2 4 5 5 4 nan 1 2 1 3 7 9 10 13 14 12 10 8 7 8 7 8 8 8 10 11 10 10 10 10 11 14 13 12 11 11 12 13 13 13 12 13 13 12 13 13 13 13 12 11 11 10 9 9 9 9 10 6 5 8 8 8 8 nan nan nan 8 10 10 8 11 11 7 9 11 13 14 13 13 12
4 2 nan nan nan 3 5 5 5 4 nan 3 2 1 1 5 7 9 12 13 11 10 8 8 8 8 9 nan nan 7 8 11 11 10 9 10 11 11 11 11 12 13 13 13 13 13 12 12 12 12 12 12 12 11 11 11 11 10 9 9 9 7 6 5 8 10 10 10 10 9 9 9 6 6 9 nan 10 10 nan 10 12 12 13 13 13
3 1 2 2 3 4 4 3 3 3 1 nan 3 3 1 4 7 9 12 12 11 10 9 8 7 7 nan nan nan 7 8 9 9 10 11 10 9 10 10 12 13 13 13 13 13 13 12 11 11 12 12 12 12 11 11 10 10 11 10 9 8 6 5 6 8 8 9 12 12 10 10 7 6 5 nan 7 7 8 14 nan nan nan 11 12 13
1 2 2 2 1 1 1 3 3 4 2 nan 3 4 4 5 7 10 11 11 11 9 8 8 8 6 nan nan nan 9 nan 8 9 9 9 10 9 10 10 11 13 14 14 13 13 13 13 11 11 12 12 12 12 11 10 10 10 9 9 8 7 7 6 7 8 9 nan 11 nan nan nan 8 7 5 3 nan 5 nan 13 nan 16 nan nan 11 12
2 1 3 4 3 3 2 2 3 4 3 nan nan 5 5 6 6 8 9 11 11 9 8 7 7 6 nan nan nan nan nan 10 9 8 10 10 9 10 10 11 12 13 14 14 13 13 12 11 12 12 13 12 12 10 10 9 10 9 9 8 7 7 8 8 10 10 9 9 nan nan nan 7 nan nan nan 4 nan nan nan nan nan 15 15 15 nan
0 1 3 4 6 5 5 1 4 4 4 nan nan nan 5 5 5 6 8 11 11 9 7 5 5 5 nan nan nan nan nan nan 9 10 10 11 10 10 11 11 11 12 13 13 13 12 12 12 12 12 12 12 11 10 10 10 10 10 9 8 8 8 9 9 11 10 9 7 8 8 7 8 7 nan nan nan nan nan nan 14 nan 12 nan nan 16
2 2 3 4 7 6 5 2 2 4 5 5 nan nan 5 5 5 5 8 10 11 10 8 6 5 4 nan nan nan nan nan nan 7 7 8 8 10 10 11 11 12 12 12 13 13 13 12 12 12 11 11 11 11 10 10 9 9 9 9 8 9 9 8 8 10 10 9 8 8 8 7 6 nan nan nan 4 4 7 7 nan nan 14 12 nan 16
5 3 3 4 4 6 5 2 1 3 5 6 nan nan nan 6 5 4 6 9 11 10 8 7 5 4 4 nan nan nan nan nan nan 8 7 7 8 9 10 10 11 12 12 12 12 11 12 12 12 11 11 10 10 9 9 8 8 9 8 8 7 7 8 7 8 9 7 6 6 7 7 6 9 9 6 5 6 5 7 nan nan nan 11 14 13
8 7 4 3 4 5 5 3 0 2 3 4 3 nan nan 7 6 5 6 8 10 11 9 8 6 4 5 nan nan nan nan nan nan nan 8 7 7 7 7 8 8 8 9 10 10 9 11 11 11 11 10 9 8 8 8 7 7 7 8 7 7 7 7 6 7 7 7 6 5 5 6 6 9 8 7 6 6 7 10 11 13 11 10 11 11
13 11 7 4 4 5 5 4 3 2 1 3 3 nan nan 7 7 6 8 10 11 11 11 8 8 7 6 nan nan nan nan nan nan nan 10 8 8 7 6 6 7 7 7 9 8 8 8 9 9 9 9 8 8 8 8 7 6 7 7 8 8 7 6 6 7 6 6 5 5 4 5 6 8 8 7 8 7 8 9 9 8 13 14 11 11
13 11 8 5 6 6 6 5 4 4 1 3 4 4 nan 6 8 7 8 9 10 11 11 10 10 10 8 7 nan nan nan nan nan nan nan 10 8 7 6 5 5 6 7 8 8 7 7 7 8 8 7 7 7 7 7 8 7 7 7 7 7 7 6 5 6 6 6 5 5 6 6 6 6 8 8 8 9 10 9 7 7 7 9 13 11
12 11 9 7 7 6 4 4 4 4 3 2 4 5 5 nan 8 9 11 12 11 12 12 13 12 11 8 8 nan nan nan nan nan nan nan nan 11 9 7 6 6 6 7 7 7 7 7 7 7 8 6 6 6 6 7 7 7 7 7 7 7 6 5 5 6 5 6 5 5 5 7 8 7 7 8 9 9 9 9 8 7 7 5 9 11
10 13 12 10 9 6 4 3 2 3 3 3 5 8 7 nan 7 9 11 12 13 14 14 15 13 11 10 9 nan nan nan nan nan nan nan nan nan nan 11 9 6 8 8 8 7 6 6 7 7 7 7 6 5 6 6 6 7 8 7 7 9 7 6 6 6 5 5 4 5 5 6 8 8 8 9 9 10 10 9 9 8 8 7 10 6
11 10 10 10 10 8 6 3 2 3 4 5 8 10 9 8 7 7 9 12 13 16 16 17 15 14 13 10 10 nan nan nan nan nan nan nan nan nan nan 9 11 11 10 9 7 6 7 8 8 7 7 6 5 5 6 7 7 8 9 9 10 8 7 6 5 4 5 4 4 4 4 6 7 8 9 10 11 11 10 9 9 9 8 8 7
14 14 13 11 11 10 7 5 5 5 6 8 10 11 10 9 8 7 11 15 17 16 17 17 17 16 15 14 13 13 nan nan nan nan nan nan nan nan nan nan 10 12 10 10 9 7 7 7 8 8 7 6 5 6 6 7 8 9 10 11 11 9 8 8 6 4 4 3 3 5 4 5 6 8 9 10 10 11 10 10 10 9 9 9 8
18 19 21 20 20 19 16 14 13 13 12 12 11 9 10 11 8 8 9 11 14 17 19 20 21 18 17 14 13 nan nan nan nan nan nan nan nan nan nan nan nan 12 12 10 8 7 7 8 8 8 7 6 5 6 8 9 9 10 11 11 11 9 8 8 7 5 3 2 2 4 4 3 4 6 8 9 10 10 10 10 10 9 10 9 8
40 29 26 28 30 29 28 25 23 19 15 12 12 13 13 11 9 9 9 9 13 17 19 21 23 21 17 16 15 nan nan nan nan nan nan nan nan nan nan nan nan nan 11 9 7 9 8 8 9 8 8 6 6 6 8 10 10 11 11 12 11 9 8 8 6 6 4 2 1 2 3 1 1 3 6 7 9 10 9 9 9 9 8 8 8
43 43 42 36 31 31 31 30 27 22 22 19 18 16 14 12 11 9 8 7 11 16 21 23 23 22 20 20 19 18 nan nan nan nan nan nan nan nan nan nan nan nan 10 8 8 9 7 8 8 8 8 8 6 7 9 10 11 11 11 11 11 8 7 6 5 5 4 3 2 1 3 0 2 1 2 4 7 9 11 10 9 10 8 8 9
50 47 45 43 46 47 43 36 29 27 26 22 21 23 20 18 15 12 8 7 11 16 22 24 23 23 22 23 21 20 nan nan nan nan nan nan nan nan nan nan nan nan nan 10 9 8 8 7 7 8 8 8 8 9 10 12 11 11 11 10 10 9 8 7 6 5 4 3 1 2 1 1 2 1 0 2 4 6 8 10 9 10 9 8 10
56 52 48 48 51 50 46 46 45 38 30 26 25 22 22 21 19 15 12 11 12 16 20 23 24 24 24 23 22 22 20 nan nan nan nan nan nan nan nan nan nan nan nan 12 11 10 8 7 8 7 8 9 8 9 10 13 14 14 13 12 11 9 8 7 6 5 5 3 2 1 1 2 3 2 2 2 4 4 5 7 7 9 9 10 11
59 57 55 52 47 46 49 49 46 44 44 37 29 23 20 19 18 16 15 15 14 16 19 23 25 25 24 23 22 22 20 19 19 nan nan nan nan nan nan nan nan nan nan nan 12 12 10 8 9 9 9 9 9 10 11 13 15 15 15 14 13 11 9 8 7 6 6 5 3 2 2 3 4 3 2 4 5 5 6 6 6 7 9 11 11
58 56 55 54 55 53 51 50 47 47 46 44 45 35 23 21 21 18 18 17 17 17 19 22 25 25 25 24 23 22 23 23 23 22 23 nan nan nan nan nan nan nan nan nan nan nan 13 12 12 13 12 11 10 11 12 13 15 16 15 15 14 12 11 10 9 7 6 5 4 3 3 3 4 4 4 5 7 7 8 7 7 7 8 10 11
59 62 61 58 55 55 54 51 52 50 47 47 45 45 42 33 23 22 22 22 22 20 20 22 25 27 26 25 25 26 27 27 27 27 26 24 23 nan nan nan nan nan nan nan nan nan nan 17 15 14 14 14 12 12 12 13 16 17 18 17 15 14 13 12 11 9 8 6 4 3 2 3 4 4 5 6 8 7 9 7 8 9 9 10 10
61 62 60 60 60 57 55 54 52 53 52 49 47 48 47 45 43 31 24 24 25 24 22 22 24 25 25 27 28 30 29 29 28 28 27 25 24 24 23 nan nan nan nan nan nan nan nan nan nan nan 15 15 14 13 14 15 16 17 19 18 17 16 15 14 13 11 9 8 6 5 4 3 3 3 6 5 6 8 9 9 10 12 10 10 11
58 60 59 58 59 59 57 56 55 56 55 52 49 49 47 47 45 45 34 26 27 24 22 19 19 20 25 27 28 30 30 29 29 28 27 26 25 25 24 22 nan nan nan nan nan nan nan nan nan nan 17 16 13 14 11 8 11 16 19 20 20 18 17 16 15 13 11 9 7 6 5 1 3 4 5 5 6 7 8 9 10 14 12 12 12
59 59 59 58 59 59 60 59 58 58 57 53 51 48 48 48 48 46 44 41 30 26 23 20 17 20 25 28 30 30 30 30 28 28 28 27 26 25 25 23 22 21 21 21 nan nan nan nan nan nan nan 16 14 14 nan nan 8 9 17 20 20 20 19 18 16 14 13 11 10 8 7 3 1 2 3 5 5 7 7 8 9 11 13 14 13
60 59 60 60 60 61 62 60 59 59 58 57 54 52 51 51 48 49 45 45 43 30 27 23 22 23 25 27 29 31 30 28 27 26 25 25 26 26 24 23 22 21 22 22 21 19 18 19 nan nan 17 16 13 11 nan nan nan 8 12 18 22 22 21 19 18 16 15 14 12 11 10 9 7 5 6 6 6 6 7 8 9 9 11 12 12
60 61 61 60 60 60 59 60 59 58 59 58 57 56 55 52 51 51 46 44 42 40 33 28 26 24 22 22 23 26 26 27 27 26 25 26 26 26 25 24 23 22 24 24 21 20 20 19 19 18 16 15 15 nan nan nan nan nan 9 13 21 22 22 21 19 17 16 15 15 14 13 12 10 5 6 8 9 9 9 9 8 9 9 11 11
nan 60 60 59 58 57 57 58 57 57 58 57 57 57 56 52 51 49 49 44 43 42 43 39 33 27 24 22 22 23 24 26 27 29 30 30 28 26 25 26 26 28 27 25 23 22 21 21 20 18 18 17 15 12 nan nan nan nan nan 12 18 20 22 21 19 20 19 17 16 15 14 13 13 12 11 10 12 12 13 13 12 12 12 10 11
nan nan nan 60 59 59 58 58 58 58 57 59 60 60 58 56 53 48 45 45 43 41 41 41 40 39 37 32 28 26 24 26 29 31 32 32 31 30 29 29 31 31 29 26 25 24 23 22 21 20 20 19 18 12 14 nan nan nan nan 14 16 18 20 20 21 20 18 19 17 17 15 14 14 14 14 13 14 15 16 15 14 14 14 14 14
nan nan nan nan 61 61 60 58 57 56 57 58 60 60 61 59 53 46 43 43 45 45 44 42 40 39 40 38 35 31 28 28 29 30 30 30 31 31 31 32 32 33 33 31 31 28 25 23 22 21 21 18 18 14 15 14 nan nan nan nan 18 15 16 18 20 20 21 21 20 18 18 17 14 14 12 13 14 17 18 16 15 15 16 16 15
nan nan nan nan nan 60 60 59 57 57 56 58 58 59 60 57 53 48 44 43 45 47 48 45 42 39 38 38 36 32 30 28 27 27 25 26 29 30 32 36 35 34 33 33 30 30 29 27 24 24 21 19 19 18 17 15 nan nan nan nan 19 17 15 15 15 19 21 23 23 22 21 21 19 17 15 16 17 19 20 18 17 17 18 16 15
nan nan nan nan nan nan nan nan 60 58 58 57 58 58 56 nan 50 49 47 44 43 47 49 47 45 42 39 39 36 31 29 28 27 25 24 25 28 32 33 36 34 33 32 31 32 32 31 30 27 24 23 22 22 20 20 18 17 nan nan nan 19 19 16 14 15 16 19 21 22 19 22 22 21 19 18 20 22 25 23 21 20 20 18 16 16
nan nan nan nan nan nan nan nan nan nan nan nan 58 nan nan nan nan 50 49 46 43 44 48 49 45 40 39 41 39 33 29 27 25 24 26 26 27 30 33 36 34 34 32 32 32 33 32 31 30 27 23 22 23 22 22 20 19 21 22 nan 20 19 17 16 18 16 18 20 21 22 19 21 22 21 21 23 28 31 27 25 24 23 19 17 19
nan nan nan nan nan nan nan nan nan nan nan nan nan nan nan nan nan 51 50 48 45 43 43 45 45 42 38 38 40 36 31 29 26 25 27 27 29 31 33 35 35 34 33 33 31 31 29 31 30 30 30 28 24 24 25 22 22 23 24 22 22 21 18 17 19 19 20 21 21 23 23 20 19 21 22 24 30 33 31 30 29 26 21 18 25
nan nan nan nan nan nan nan nan nan nan nan nan nan nan nan nan nan nan 51 49 45 44 44 42 39 39 39 40 40 37 33 31 30 29 30 30 30 30 31 32 32 34 32 30 28 28 28 27 31 30 31 30 28 26 25 26 25 26 25 25 25 21 19 19 22 22 24 24 23 24 26 23 22 22 23 23 29 33 32 32 31 27 23 20 24
nan nan nan nan nan nan nan nan nan nan nan nan nan nan nan nan nan nan 51 50 46 44 45 44 40 36 35 38 41 40 38 41 40 36 33 30 29 29 30 30 32 31 29 27 27 28 27 27 29 30 29 27 26 24 28 28 27 28 28 27 26 24 22 24 24 24 25 24 24 25 25 26 26 25 24 24 27 33 33 34 29 25 22 23 25
nan nan nan nan nan nan nan nan nan nan nan nan nan nan nan nan nan nan nan nan 47 46 46 46 43 39 35 34 38 41 44 48 43 39 34 29 28 28 28 29 29 28 27 26 26 27 27 27 29 29 28 27 28 29 25 28 30 30 30 28 24 23 26 28 29 26 26 27 26 26 26 28 30 28 27 27 29 32 36 33 27 26 25 24 27
nan nan nan nan nan nan nan nan nan nan nan nan nan nan nan nan nan nan nan nan 48 48 49 47 45 43 41 37 37 39 43 40 39 38 40 38 32 29 29 29 28 27 26 25 25 26 27 27 29 28 28 27 27 28 29 26 30 32 30 29 25 22 29 30 30 29 31 31 29 29 29 30 32 31 30 30 30 35 35 31 30 28 26 27 33
nan nan nan nan nan nan nan nan nan nan nan nan nan nan nan nan nan nan nan nan nan 50 51 49 46 45 46 46 44 43 44 36 33 35 38 36 31 30 30 31 30 27 26 24 23 25 24 24 25 26 26 26 27 28 29 29 27 31 30 28 26 25 25 29 30 30 31 32 30 29 30 32 32 33 33 32 34 35 33 32 33 32 31 36 33
nan nan nan nan nan nan nan nan nan nan nan nan nan nan nan nan nan nan nan nan nan nan 52 50 48 nan 47 48 48 46 44 35 30 34 36 37 34 32 32 33 32 29 27 25 23 23 23 23 23 23 23 25 27 28 27 29 31 28 28 27 28 27 26 26 25 26 27 27 29 30 31 32 33 34 38 39 40 38 35 34 35 37 41 39 35
nan nan nan nan nan nan nan nan nan nan nan nan nan nan nan nan nan nan nan nan nan nan 53 52 51 50 nan nan nan 47 45 40 36 36 36 36 37 36 34 34 33 31 28 26 24 23 22 22 21 22 22 24 25 26 26 26 29 30 33 32 31 29 27 27 27 25 26 30 30 32 34 34 36 37 37 36 34 35 39 41 40 42 43 42 40
nan nan nan nan nan nan nan nan nan nan nan nan nan nan nan nan nan nan nan nan nan nan nan 54 53 nan nan nan nan nan 42 41 37 36 36 37 37 36 36 34 33 30 29 27 25 24 20 19 20 21 22 24 24 23 22 21 25 32 32 35 35 36 37 37 31 30 30 32 34 34 33 35 35 37 36 36 35 36 38 42 42 44 44 45 43
nan nan nan nan nan nan nan nan nan nan nan nan nan nan nan nan nan nan nan nan nan nan nan nan nan nan nan nan nan nan 45 42 38 37 37 38 39 37 34 34 32 32 31 28 25 23 21 20 20 21 22 21 20 18 15 21 25 29 31 34 37 34 35 34 29 30 37 38 36 33 32 32 32 32 35 34 33 35 36 38 40 41 43 45 45
nan nan nan nan nan nan nan nan nan nan nan nan nan nan nan nan nan nan nan nan nan nan nan nan nan nan nan nan nan nan 47 44 42 40 38 38 37 33 33 32 29 24 20 19 22 23 21 22 23 21 21 19 18 15 15 22 25 28 27 29 29 30 31 33 32 38 41 39 36 33 30 29 30 31 32 32 32 34 34 35 35 36 39 42 44
nan nan nan nan nan nan nan nan nan nan nan nan nan nan nan nan nan nan nan nan nan nan nan nan nan nan nan nan nan nan nan 44 42 41 40 39 41 38 28 20 19 19 19 16 17 15 18 22 23 23 21 14 14 18 21 25 27 27 27 26 27 29 32 32 44 53 44 39 36 31 28 29 29 30 30 31 33 33 32 32 33 35 37 37 39
Wind_Direction
nan nan nan nan 5 nan nan nan 327 288 252 264 256 226 191 177 182 174 171 166 168 165 159 158 149 148 149 130 120 119 120 122 120 118 114 116 117 115 110 111 112 113 116 117 112 112 117 127 131 134 139 141 135 123 128 125 124 122 127 128 123 115 118 113 112 119 135 132 134 134 131 126 118 111 105 104 97 95 89 83 80 80 77 72 70
359 nan nan nan nan 11 nan nan 324 303 230 258 269 244 202 190 176 175 180 166 160 159 157 153 140 128 136 130 133 129 123 119 116 115 112 121 122 116 112 112 113 112 115 114 112 107 111 115 120 124 134 138 139 139 134 129 125 124 125 125 125 113 108 106 101 122 136 127 134 131 134 133 127 120 114 105 97 92 86 81 76 75 73 65 63
nan nan nan nan nan 9 8 356 340 337 303 308 314 247 212 195 178 183 180 168 158 158 160 136 129 125 122 133 117 134 130 124 118 118 121 126 129 121 117 118 117 116 116 113 112 105 100 105 107 117 125 133 137 134 131 126 122 119 124 122 118 117 112 109 112 117 110 121 127 130 136 140 130 135 123 103 89 83 82 79 73 71 70 63 64
1 nan nan nan nan 7 8 357 351 nan 297 308 309 295 210 191 187 188 181 169 162 156 144 125 113 127 131 132 121 130 132 133 135 142 138 145 129 123 123 122 121 120 118 114 115 105 100 100 110 109 116 127 131 132 131 126 125 120 121 125 119 116 118 107 103 107 114 121 134 131 nan nan 132 132 122 109 104 95 85 81 75 73 70 67 70
315 nan nan nan 13 6 5 10 350 nan nan 308 299 270 204 196 191 193 186 170 163 154 136 129 129 139 145 155 156 159 163 157 152 144 137 133 135 116 112 124 122 120 119 112 109 104 105 106 106 113 120 121 132 131 131 129 127 118 117 128 126 110 120 114 107 108 123 135 115 nan 130 135 118 109 nan 106 116 102 90 88 81 76 72 72 81
173 298 nan nan nan 341 16 15 358 347 nan 258 264 299 235 208 199 195 191 178 162 151 142 136 128 133 144 157 158 151 152 151 132 123 132 120 108 117 122 118 121 118 116 110 107 107 103 104 108 113 116 119 123 130 137 139 129 124 122 127 126 127 113 124 109 117 126 136 nan nan nan 123 126 119 129 123 121 88 104 93 87 85 82 83 89
175 205 nan nan nan 360 18 17 360 343 nan 231 224 166 235 227 209 202 196 184 168 157 151 147 149 149 139 nan nan 146 138 134 134 130 120 117 119 115 118 120 116 113 112 109 106 106 107 107 108 111 115 121 117 129 129 127 128 126 132 134 129 128 129 112 94 105 127 133 133 131 131 131 122 143 131 nan 134 125 nan 100 93 90 91 94 97
190 219 252 314 353 12 13 2 333 341 293 nan 223 194 185 218 212 202 197 190 175 168 161 153 160 162 nan nan nan 147 134 134 138 135 132 135 121 117 126 121 113 114 113 110 109 108 108 110 112 114 116 121 117 118 121 127 131 133 130 134 134 127 118 110 110 115 118 121 137 141 139 143 146 145 nan 103 103 115 120 nan nan nan 98 97 101
163 214 209 230 317 47 305 321 332 340 343 nan 220 205 184 197 204 199 197 195 183 179 172 163 171 169 nan nan nan 148 nan 152 156 150 141 142 134 140 134 126 120 113 114 111 110 109 111 113 113 115 118 119 119 121 125 124 122 128 127 135 126 127 124 125 128 113 nan 108 nan nan nan 149 151 157 135 nan 102 nan 111 nan 111 nan nan 109 110
64 158 207 217 224 207 214 274 329 355 339 nan nan 212 194 195 198 195 192 193 194 189 183 179 177 173 nan nan nan nan nan 168 168 158 150 151 143 140 137 133 124 118 112 111 113 112 115 117 114 111 113 120 121 125 130 130 130 127 123 124 128 125 129 127 122 120 117 124 nan nan nan 141 nan nan nan 132 nan nan nan nan nan 126 133 124 nan
19 192 210 225 245 249 237 291 7 341 317 nan nan nan 205 196 198 190 183 194 202 201 199 193 188 171 nan nan nan nan nan nan 177 165 167 165 158 153 143 134 132 122 119 119 118 118 117 116 114 112 116 119 124 129 127 128 130 128 131 131 128 121 125 125 126 134 136 130 125 117 110 103 108 nan nan nan nan nan nan 118 nan 119 nan nan 124
204 220 216 237 253 274 277 315 348 345 338 360 nan nan 210 200 202 187 183 191 201 207 211 208 205 173 nan nan nan nan nan nan 179 176 174 167 163 162 159 154 143 139 134 128 126 118 119 120 118 120 122 124 124 130 132 133 136 138 136 135 132 132 136 135 130 129 135 146 136 132 125 138 nan nan nan 109 104 120 118 nan nan 128 131 nan 125
183 193 218 240 273 290 301 313 327 349 353 354 nan nan nan 208 205 193 178 189 197 209 216 221 222 196 159 nan nan nan nan nan nan 193 192 182 179 177 177 159 157 150 136 128 125 123 126 122 124 128 129 129 131 133 134 138 141 141 140 137 141 132 131 134 136 122 130 131 136 142 153 149 122 122 131 127 139 142 121 nan nan nan 133 138 139
172 177 191 233 260 270 282 263 198 53 1 331 337 nan nan 207 201 191 177 189 196 206 213 222 228 218 184 nan nan nan nan nan nan nan 203 198 204 195 185 176 166 146 146 130 146 142 128 126 137 133 134 137 138 135 138 143 149 146 144 142 137 144 149 137 131 135 142 148 166 172 160 150 133 135 131 138 132 136 131 120 129 142 147 143 144
175 175 167 190 234 252 252 241 185 147 336 289 281 nan nan 213 209 198 187 188 195 201 210 216 222 224 201 nan nan nan nan nan nan nan 209 215 213 211 196 189 177 169 161 156 164 159 149 150 145 143 144 146 150 147 147 154 159 162 154 147 152 161 153 149 142 142 142 152 160 152 156 159 141 144 147 137 141 131 125 124 139 149 156 162 157
172 171 164 169 207 226 239 231 205 193 215 248 284 275 nan 219 218 209 200 199 195 199 205 212 218 222 211 196 nan nan nan nan nan nan nan 214 224 224 217 204 188 196 188 184 171 174 167 159 158 150 156 154 156 153 155 162 167 165 161 159 148 168 163 143 139 143 136 143 157 174 161 149 160 157 156 154 145 138 133 143 158 175 168 161 155
168 165 165 167 187 205 230 241 222 219 216 246 271 274 272 nan 226 214 204 200 199 201 207 210 214 219 215 202 nan nan nan nan nan nan nan nan 221 223 224 218 218 217 216 203 191 182 178 171 160 156 159 163 159 158 163 167 171 165 164 158 145 156 152 125 135 125 129 157 174 173 156 155 162 175 173 166 155 153 153 152 160 168 177 187 164
172 172 172 171 171 183 201 209 261 275 266 249 262 262 263 nan 248 235 217 209 203 204 206 211 214 211 210 206 nan nan nan nan nan nan nan nan nan nan 220 224 222 226 229 221 212 198 181 168 162 157 161 170 158 163 167 171 172 164 160 152 141 151 137 138 124 116 121 146 158 175 177 163 169 178 181 183 169 166 167 164 165 171 181 188 186
188 184 185 175 169 170 179 186 220 258 259 255 255 259 259 259 255 250 237 222 216 210 209 210 214 210 208 205 205 nan nan nan nan nan nan nan nan nan nan 222 227 231 232 230 222 204 191 172 166 163 168 161 165 162 171 175 173 162 161 152 146 145 135 121 122 116 121 124 119 129 171 169 179 180 192 190 181 176 177 182 183 191 178 208 213
190 189 183 172 165 166 173 191 212 232 240 239 249 252 271 275 278 260 234 224 217 214 215 214 215 213 207 204 199 206 nan nan nan nan nan nan nan nan nan nan 232 235 235 233 224 211 196 179 170 167 166 169 171 172 177 179 177 164 163 159 154 151 138 122 121 128 129 117 113 116 136 160 185 197 201 202 193 187 189 192 200 201 200 210 225
198 198 189 180 173 173 177 189 200 207 216 229 236 252 259 261 279 286 274 248 225 217 216 213 217 215 213 209 203 nan nan nan nan nan nan nan nan nan nan nan nan 236 239 239 231 213 197 180 174 168 164 163 169 179 184 184 179 172 169 164 165 160 145 139 139 131 140 131 107 104 115 142 188 187 200 213 213 210 205 202 208 211 211 219 232
199 202 205 197 188 183 184 190 199 203 208 219 225 229 238 251 264 280 280 257 236 225 218 217 217 217 218 216 211 nan nan nan nan nan nan nan nan nan nan nan nan nan 248 244 237 222 203 186 178 168 162 166 176 179 191 190 183 182 174 177 172 168 160 149 155 137 142 161 148 102 100 125 214 174 192 209 220 225 227 223 218 217 213 219 231
200 201 199 201 203 199 196 194 196 200 201 207 211 215 221 232 239 250 270 270 242 225 220 218 217 218 218 219 217 213 nan nan nan nan nan nan nan nan nan nan nan nan 248 246 241 231 216 195 177 171 165 171 172 189 195 194 189 188 186 181 178 176 169 165 155 145 150 179 168 142 113 207 265 240 209 208 224 227 235 235 228 232 230 227 237
201 203 203 201 203 201 199 196 200 204 203 206 208 208 209 212 217 222 233 253 242 225 220 218 216 214 217 219 220 219 nan nan nan nan nan nan nan nan nan nan nan nan nan 240 243 240 227 209 187 175 175 173 179 191 200 197 194 196 193 189 187 182 176 166 161 163 176 203 184 163 147 263 274 303 297 262 253 248 247 247 243 243 245 246 250
204 204 205 205 206 205 203 202 199 199 204 211 213 214 204 208 212 209 209 226 232 226 220 217 215 215 216 216 219 221 219 nan nan nan nan nan nan nan nan nan nan nan nan 236 234 236 228 216 201 190 185 185 184 194 200 199 199 202 200 197 195 191 184 174 170 172 176 199 212 185 196 272 278 292 299 305 293 300 280 270 265 260 260 257 259
207 206 207 208 207 207 206 204 204 205 204 204 211 222 216 207 208 209 214 223 231 227 221 217 216 216 213 214 217 219 218 217 212 nan nan nan nan nan nan nan nan nan nan nan 232 229 225 218 211 205 202 196 196 200 201 201 204 207 206 202 201 199 193 189 185 184 186 194 186 182 219 270 289 310 311 305 299 311 298 300 298 285 274 265 264
210 209 208 209 209 208 207 205 205 206 207 209 207 207 212 212 209 210 214 224 232 233 227 221 218 216 213 212 213 213 216 217 214 211 210 nan nan nan nan nan nan nan nan nan nan nan 221 222 218 217 213 212 209 208 206 206 206 209 208 207 204 201 199 198 197 194 195 197 194 201 231 270 298 312 315 312 307 307 303 314 317 308 292 280 271
212 210 208 208 209 209 208 206 205 206 207 210 211 210 207 205 207 214 216 224 226 231 228 225 220 216 214 213 211 212 214 216 215 214 213 212 212 nan nan nan nan nan nan nan nan nan nan 222 222 221 219 220 220 217 215 212 211 212 212 209 208 206 203 202 203 203 201 200 201 203 230 272 303 309 314 309 308 309 299 306 301 300 296 293 285
214 211 209 209 209 208 207 207 206 207 209 210 211 210 208 208 206 208 223 225 232 230 230 228 223 219 216 214 215 215 215 216 218 218 216 215 215 215 215 nan nan nan nan nan nan nan nan nan nan nan 226 225 224 222 222 221 218 215 214 211 211 210 208 207 207 206 207 206 202 206 217 247 292 340 347 344 325 310 299 299 296 297 298 297 292
216 215 211 210 210 209 209 207 207 209 209 210 211 210 210 209 208 207 209 226 234 237 239 237 233 227 221 219 220 219 219 220 221 221 220 220 219 218 219 219 nan nan nan nan nan nan nan nan nan nan 232 229 224 222 225 234 227 220 219 214 213 211 211 211 210 210 209 211 209 211 216 28 357 11 12 7 1 347 339 314 300 297 299 294 293
216 217 216 212 210 211 210 208 208 209 210 211 211 211 211 211 211 210 211 209 222 237 238 240 238 232 227 225 223 220 221 223 223 224 224 224 223 222 221 220 220 221 224 227 nan nan nan nan nan nan nan 232 225 222 nan nan 237 230 223 219 216 214 215 215 214 213 211 216 216 217 220 221 335 6 344 3 358 358 351 350 342 324 307 300 293
215 216 218 216 212 212 212 210 209 210 210 212 211 211 212 212 211 211 212 215 212 224 234 234 235 234 235 237 233 229 225 223 224 227 231 232 232 230 226 225 224 225 226 229 229 230 232 234 nan nan 239 235 227 228 nan nan nan 243 231 222 220 217 218 218 219 217 215 219 220 223 226 233 241 260 269 279 316 346 353 351 349 341 334 329 320
215 216 218 218 218 215 214 212 213 213 213 212 212 212 213 211 212 210 211 214 216 215 222 233 233 234 238 244 249 251 243 232 225 222 225 232 236 237 235 231 228 227 228 229 228 229 230 233 236 238 238 238 228 nan nan nan nan nan 248 230 220 220 219 219 221 221 221 222 223 225 226 234 239 284 279 281 281 289 311 342 345 345 342 339 337
nan 217 217 218 220 220 218 217 216 216 215 215 216 215 213 215 214 211 210 212 217 218 216 213 216 224 224 222 226 236 246 245 236 227 221 221 227 234 237 236 232 231 230 228 228 227 227 230 232 233 233 233 232 239 nan nan nan nan nan 246 222 224 221 218 219 223 225 228 228 228 230 230 240 250 257 270 276 280 281 286 294 299 302 315 332
nan nan nan 217 218 220 220 219 219 217 217 217 217 216 216 217 218 214 211 212 218 222 221 220 217 212 211 210 214 219 224 230 232 232 228 224 221 220 226 231 233 236 236 233 231 229 227 228 229 230 229 229 229 245 259 nan nan nan nan 258 233 227 223 219 219 221 224 229 232 233 232 232 235 245 252 264 267 270 273 276 283 290 294 297 301
nan nan nan nan 217 219 219 221 221 220 220 221 219 217 218 218 220 219 213 213 217 221 225 226 222 217 214 211 208 210 216 220 225 229 231 230 227 224 223 225 228 231 233 233 232 232 231 230 230 230 229 225 226 243 258 265 nan nan nan nan 243 238 232 226 222 222 225 229 234 237 236 236 235 241 255 278 273 264 265 271 276 278 281 287 294
nan nan nan nan nan 220 220 221 223 222 223 223 223 221 221 221 222 221 218 214 216 220 224 227 228 225 220 218 216 212 210 216 224 228 230 234 235 233 230 230 227 228 231 234 235 236 235 235 234 234 232 226 224 238 254 262 nan nan nan nan 247 245 242 238 230 228 228 231 236 240 242 240 242 245 257 274 275 272 262 265 267 268 270 275 282
nan nan nan nan nan nan nan nan 222 224 224 224 225 225 222 nan 224 222 221 219 215 219 222 224 226 228 226 221 223 222 215 216 223 226 227 231 235 236 236 237 234 231 230 232 234 234 236 237 239 240 239 233 229 239 256 259 266 nan nan nan 250 249 249 249 242 238 237 236 239 251 252 247 246 248 260 270 273 270 261 262 262 262 264 269 273
nan nan nan nan nan nan nan nan nan nan nan nan 226 nan nan nan nan 223 222 223 221 217 219 220 223 226 224 220 222 225 222 221 224 225 227 233 237 239 239 239 237 234 230 229 232 233 235 238 241 242 246 243 234 239 259 266 273 275 271 nan 254 252 251 250 250 248 247 243 241 246 256 255 252 253 261 266 273 271 264 263 262 261 263 267 269
nan nan nan nan nan nan nan nan nan nan nan nan nan nan nan nan nan 223 224 223 219 216 217 219 222 225 226 223 223 225 224 222 224 224 227 233 238 238 239 239 238 237 233 232 233 235 236 238 241 242 243 244 241 240 253 268 273 278 284 266 256 255 251 253 252 252 249 248 248 246 252 262 264 262 262 266 271 278 269 264 264 264 266 265 264
nan nan nan nan nan nan nan nan nan nan nan nan nan nan nan nan nan nan 223 222 219 216 216 218 221 223 222 221 224 222 221 225 226 226 227 233 238 237 236 236 236 236 235 233 235 236 237 238 241 242 243 244 244 245 250 267 271 278 283 278 259 261 259 256 253 251 250 252 254 254 254 265 273 270 268 269 272 278 277 269 269 269 271 268 265
nan nan nan nan nan nan nan nan nan nan nan nan nan nan nan nan nan nan 219 221 220 219 218 218 218 216 216 216 216 218 218 221 222 223 226 231 237 236 232 234 235 234 234 234 235 237 237 239 241 244 244 246 249 255 249 261 272 275 278 285 265 263 267 260 257 253 253 253 255 257 258 266 277 277 276 275 276 277 281 272 274 282 280 275 269
nan nan nan nan nan nan nan nan nan nan nan nan nan nan nan nan nan nan nan nan 219 219 218 217 219 217 216 220 219 215 223 228 222 220 221 225 232 234 233 236 237 235 233 231 233 237 238 239 242 244 245 247 249 251 262 259 269 275 278 282 286 273 275 267 261 260 261 257 256 257 259 268 276 280 280 279 278 282 277 276 285 282 281 280 272
nan nan nan nan nan nan nan nan nan nan nan nan nan nan nan nan nan nan nan nan 218 219 219 218 219 219 218 221 224 224 232 230 224 220 217 215 220 227 228 231 237 238 236 233 231 235 238 239 242 244 245 247 249 251 258 268 267 277 280 286 288 284 277 269 266 261 262 261 261 261 260 270 275 278 280 279 280 281 279 289 288 286 282 276 268
nan nan nan nan nan nan nan nan nan nan nan nan nan nan nan nan nan nan nan nan nan 219 220 219 218 219 218 219 221 226 241 234 228 224 222 223 224 225 224 229 234 237 238 236 232 234 237 239 241 242 243 245 248 251 252 261 274 277 286 289 291 290 280 278 268 262 264 266 269 274 274 276 278 280 283 281 276 280 288 286 289 290 285 271 272
nan nan nan nan nan nan nan nan nan nan nan nan nan nan nan nan nan nan nan nan nan nan 221 220 218 nan 219 220 222 224 237 242 229 227 226 225 226 227 224 226 233 236 239 238 235 235 234 237 238 239 241 243 246 248 251 255 263 274 279 290 293 290 288 285 281 270 275 277 275 276 280 281 281 281 276 273 275 279 288 292 290 285 276 276 276
nan nan nan nan nan nan nan nan nan nan nan nan nan nan nan nan nan nan nan nan nan nan 220 220 219 219 nan nan nan 228 229 228 228 228 228 229 229 229 227 226 226 232 239 241 241 238 235 236 237 237 238 241 243 246 249 254 261 264 266 270 272 273 281 280 270 263 263 263 263 263 265 272 275 286 290 291 290 287 284 281 280 281 282 281 281
nan nan nan nan nan nan nan nan nan nan nan nan nan nan nan nan nan nan nan nan nan nan nan 218 216 nan nan nan nan nan 225 229 227 229 230 229 233 234 234 233 234 234 235 238 242 242 239 239 238 238 238 240 242 245 250 258 261 260 261 263 265 265 267 269 270 267 266 263 260 261 265 268 273 276 280 281 285 286 288 285 283 283 285 285 286
nan nan nan nan nan nan nan nan nan nan nan nan nan nan nan nan nan nan nan nan nan nan nan nan nan nan nan nan nan nan 228 230 228 227 230 230 230 233 232 230 231 231 229 232 240 241 239 239 238 239 242 242 243 247 251 257 259 267 267 263 263 266 269 270 280 283 269 264 264 265 269 273 277 280 280 282 283 285 285 286 287 286 285 285 285
nan nan nan nan nan nan nan nan nan nan nan nan nan nan nan nan nan nan nan nan nan nan nan nan nan nan nan nan nan nan 225 226 224 224 224 226 231 233 231 229 220 215 212 221 240 240 238 239 239 239 245 247 244 241 249 267 270 273 277 281 281 282 283 279 280 281 274 271 274 274 279 282 282 281 283 284 285 283 283 285 287 289 287 286 286
nan nan nan nan nan nan nan nan nan nan nan nan nan nan nan nan nan nan nan nan nan nan nan nan nan nan nan nan nan nan nan 225 224 224 226 225 224 230 235 231 231 223 224 226 237 233 225 232 238 233 236 239 222 223 240 258 266 270 276 280 281 282 283 284 274 268 269 272 273 279 282 283 283 283 285 287 286 285 284 285 286 288 288 290 289